Precipitable_Water
1.27 1.31 1.30 1.31 1.38 1.40 1.43 1.43 1.51 1.57 1.61 1.66 1.63 1.65 1.67 1.65 1.80 1.79 1.79 1.75 1.69 1.72 1.71 1.74 1.72 1.74 1.73 1.73 1.69 1.68 1.74 1.62 1.75 1.66 1.59 1.57 1.53 1.54 1.57 1.55 1.65 1.60
1.23 1.27 1.31 1.32 1.35 1.39 1.43 1.47 1.47 1.51 1.56 1.63 1.70 1.70 1.66 1.66 1.65 1.68 1.69 1.70 1.67 1.65 1.73 1.69 1.71 1.72 1.74 1.75 1.69 1.68 1.66 1.66 1.67 1.76 1.57 1.51 1.59 1.62 1.58 1.64 1.57 1.62
1.23 1.25 1.27 1.26 1.28 1.33 1.38 1.44 1.49 1.47 1.49 1.52 1.63 1.66 1.64 1.56 1.56 1.54 1.58 1.61 1.63 1.63 1.61 1.70 1.71 1.70 1.70 1.77 1.75 1.69 1.68 1.66 1.59 1.77 1.61 1.58 1.58 1.58 1.64 1.61 1.55 1.55
1.20 1.21 1.24 1.25 1.28 1.34 1.34 1.36 1.38 1.44 1.45 1.45 1.51 1.60 1.70 1.58 1.53 1.52 1.47 1.46 1.52 1.57 1.60 1.60 1.64 1.67 1.65 1.70 1.70 1.67 1.74 1.68 1.66 1.78 1.65 1.64 1.61 1.66 1.63 1.64 1.65 1.65
1.15 1.14 1.18 1.23 1.27 1.33 1.36 1.30 1.33 1.38 1.37 1.40 1.42 1.51 1.55 1.56 1.52 1.50 1.46 1.41 1.40 1.42 1.48 1.53 1.54 1.62 1.65 1.64 1.65 1.62 1.69 1.69 1.70 1.66 1.63 1.59 1.64 1.60 1.64 1.65 1.61 1.59
1.21 1.16 1.13 1.15 1.22 1.25 1.27 1.29 1.28 1.32 1.34 1.31 1.32 1.38 1.43 1.50 1.49 1.47 1.44 1.42 1.39 1.33 1.38 1.42 1.46 1.49 1.56 1.58 1.57 1.57 1.66 1.62 1.78 1.60 1.53 1.57 1.62 1.70 1.62 1.67 1.59 1.52
1.22 1.20 1.12 1.11 1.13 1.17 1.19 1.24 1.29 1.27 1.30 1.32 1.34 1.29 1.34 1.38 1.41 1.41 1.41 1.40 1.42 1.41 1.35 1.39 1.42 1.47 1.51 1.54 1.49 1.49 1.58 1.69 1.82 1.66 1.52 1.52 1.57 1.68 1.74 1.72 1.59 1.56
1.26 1.23 1.19 1.14 1.08 1.11 1.11 1.16 1.22 1.25 1.25 1.25 1.27 1.32 1.27 1.30 1.35 1.37 1.34 1.34 1.35 1.38 1.40 1.41 1.42 1.44 1.46 1.45 1.45 1.42 1.41 1.47 1.48 1.60 1.57 1.52 1.55 1.49 1.50 1.63 1.64 1.51
1.30 1.31 1.26 1.18 1.08 1.06 1.06 1.09 1.16 1.22 1.23 1.18 1.18 1.25 1.31 1.25 1.27 1.29 1.32 1.29 1.28 1.33 1.37 1.37 1.42 1.44 1.44 1.45 1.44 1.42 1.38 1.41 1.45 1.45 1.43 1.42 1.43 1.43 1.49 1.53 1.54 1.53
1.31 1.32 1.33 1.26 1.14 1.06 1.03 1.05 1.12 1.18 1.25 1.16 1.13 1.13 1.22 1.26 1.22 1.23 1.26 1.26 1.24 1.22 1.28 1.33 1.35 1.39 1.40 1.40 1.41 1.42 1.42 1.40 1.46 1.51 1.52 1.45 1.41 1.42 1.41 1.44 1.47 1.49
1.38 1.34 1.31 1.31 1.23 1.16 1.06 1.05 1.07 1.12 1.19 1.19 1.13 1.07 1.10 1.22 1.24 1.20 1.19 1.20 1.18 1.16 1.16 1.24 1.28 1.31 1.32 1.33 1.36 1.38 1.39 1.40 1.41 1.40 1.40 1.42 1.44 1.44 1.45 1.47 1.47 1.45
1.45 1.39 1.34 1.32 1.28 1.23 1.19 1.11 1.08 1.06 1.09 1.18 1.16 1.10 1.05 1.08 1.19 1.20 1.15 1.14 1.15 1.14 1.13 1.17 1.24 1.27 1.29 1.28 1.29 1.35 1.33 1.30 1.27 1.25 1.25 1.26 1.26 1.29 1.34 1.40 1.42 1.43
1.54 1.49 1.42 1.37 1.36 1.30 1.24 1.20 1.13 1.08 1.05 1.09 1.17 1.15 1.10 1.00 1.06 1.16 1.17 1.13 1.14 1.14 1.12 1.12 1.14 1.17 1.21 1.25 1.27 1.27 1.26 1.25 1.21 1.19 1.19 1.21 1.24 1.24 1.26 1.27 1.29 1.31
1.62 1.61 1.54 1.48 1.44 1.41 1.33 1.24 1.20 1.18 1.10 1.07 1.10 1.11 1.09 1.06 1.01 1.06 1.18 1.18 1.14 1.14 1.12 1.14 1.14 1.14 1.13 1.16 1.20 1.20 1.18 1.17 1.16 1.15 1.13 1.17 1.15 1.16 1.20 1.22 1.24 1.25
1.73 1.69 1.66 1.61 1.53 1.49 1.42 1.32 1.23 1.22 1.19 1.11 1.07 1.08 1.11 1.11 1.06 1.01 1.05 1.16 1.19 1.15 1.12 1.10 1.11 1.12 1.12 1.10 1.11 1.12 1.09 1.06 1.09 1.09 1.07 1.07 1.11 1.12 1.16 1.15 1.12 1.15
1.76 1.73 1.71 1.69 1.62 1.54 1.50 1.43 1.33 1.25 1.23 1.21 1.17 1.11 1.07 1.06 1.06 1.04 1.01 1.06 1.11 1.12 1.11 1.06 1.02 1.07 1.08 1.05 1.05 1.06 1.03 0.97 1.00 1.01 1.03 1.02 1.01 1.00 1.01 1.07 1.09 1.07
1.81 1.77 1.74 1.71 1.70 1.65 1.60 1.54 1.47 1.39 1.31 1.27 1.26 1.25 1.18 1.11 1.04 0.98 0.94 0.97 1.05 1.09 1.07 1.01 0.96 0.95 1.00 0.99 0.96 0.96 0.99 0.98 0.90 0.93 0.97 0.98 0.99 1.00 0.98 0.96 0.96 0.99
1.87 1.84 1.80 1.73 1.71 1.69 1.67 1.63 1.59 1.52 1.44 1.37 1.34 1.31 1.31 1.28 1.20 1.07 0.97 0.92 0.95 1.01 1.05 1.03 0.97 0.91 0.90 0.92 0.90 0.87 0.87 0.91 0.93 0.88 0.88 0.93 0.97 0.95 0.95 0.94 0.91 0.89
1.95 1.91 1.87 1.83 1.79 1.73 1.71 1.68 1.64 1.59 1.52 1.45 1.40 1.42 1.43 1.40 1.33 1.27 1.17 1.06 0.94 0.90 0.93 1.00 1.03 1.01 0.93 0.88 0.85 0.81 0.79 0.77 0.78 0.85 0.89 0.90 0.94 1.00 0.98 0.95 0.93 0.91
2.00 1.95 1.93 1.94 1.94 1.88 1.82 1.74 1.66 1.59 1.54 1.50 1.47 1.46 1.45 1.44 1.42 1.37 1.32 1.25 1.17 1.06 0.97 0.93 0.95 1.03 1.03 0.97 0.90 0.85 0.80 0.77 0.73 0.72 0.77 0.82 0.90 0.96 1.01 1.05 1.04 0.98
2.05 2.00 1.97 1.97 1.96 1.96 1.93 1.84 1.77 1.68 1.59 1.52 1.48 1.46 1.42 1.39 1.36 1.33 1.33 1.31 1.28 1.24 1.18 1.11 1.04 1.01 1.01 1.00 0.96 0.92 0.88 0.85 0.82 0.77 0.74 0.74 0.76 0.79 0.86 0.94 1.03 1.08
2.10 2.07 2.03 2.00 1.97 1.99 1.95 1.89 1.85 1.78 1.71 1.65 1.54 1.49 1.50 1.54 1.50 1.43 1.38 1.35 1.33 1.30 1.25 1.19 1.17 1.14 1.10 1.05 1.00 0.96 0.94 0.93 0.91 0.87 0.81 0.78 0.77 0.78 0.80 0.84 0.88 0.93
2.02 2.05 2.08 2.09 2.08 1.98 1.95 1.92 1.91 1.88 1.84 1.83 1.70 1.58 1.52 1.52 1.51 1.51 1.50 1.45 1.40 1.36 1.30 1.26 1.24 1.23 1.18 1.13 1.10 1.07 1.06 1.05 1.02 1.00 0.95 0.90 0.86 0.86 0.86 0.84 0.87 0.89
2.02 2.01 2.00 2.02 2.09 2.08 2.04 2.02 2.04 1.98 1.98 1.96 1.86 1.75 1.65 1.60 1.57 1.57 1.59 1.57 1.51 1.45 1.40 1.33 1.30 1.31 1.27 1.21 1.17 1.16 1.15 1.12 1.11 1.07 1.04 1.01 0.98 0.98 0.97 0.95 0.92 0.89
2.01 2.03 2.04 2.02 2.01 2.04 2.10 2.15 2.14 2.12 2.11 2.10 1.98 1.92 1.85 1.84 1.75 1.66 1.61 1.63 1.62 1.57 1.52 1.43 1.38 1.37 1.34 1.28 1.25 1.24 1.23 1.24 1.22 1.18 1.13 1.11 1.09 1.07 1.09 1.06 1.04 1.01
1.93 1.97 2.02 2.05 2.05 2.06 2.12 2.10 2.15 2.15 2.17 2.17 2.14 2.08 2.02 1.98 1.94 1.82 1.67 1.58 1.59 1.58 1.57 1.55 1.46 1.44 1.43 1.35 1.31 1.28 1.27 1.29 1.30 1.23 1.18 1.17 1.17 1.15 1.12 1.15 1.14 1.12
Wind_Speed
17 17 16 15 14 13 13 12 12 11 11 10 9 9 8 8 8 8 7 7 7 6 6 6 6 6 6 6 6 5 6 6 6 6 6 6 6 6 6 6 5 5
18 18 17 16 16 15 14 13 13 12 12 11 10 9 9 9 8 8 8 7 7 7 6 6 6 6 6 6 6 5 5 6 6 6 6 6 6 6 6 6 6 5
19 19 18 17 17 16 15 14 14 13 12 12 11 10 10 9 9 9 8 8 7 7 7 7 6 6 6 6 6 6 6 6 6 6 6 7 7 6 7 7 6 6
20 19 19 18 18 17 16 15 15 14 13 13 12 12 11 10 10 9 9 9 8 8 8 7 7 7 6 6 6 6 6 6 6 6 6 6 7 7 7 7 7 7
20 20 20 19 18 18 17 17 16 15 14 14 13 13 12 11 11 10 10 9 9 8 8 8 7 7 7 7 6 6 6 6 6 6 6 6 7 7 7 7 7 7
20 20 20 20 19 19 18 18 17 16 16 15 14 14 13 13 12 11 10 10 10 9 9 8 8 8 7 7 7 7 7 6 6 7 7 7 7 7 7 7 8 8
21 21 21 21 20 20 19 19 18 18 17 16 16 15 14 14 13 12 12 11 10 10 9 9 9 9 8 8 8 7 7 7 7 7 7 7 7 7 7 7 8 8
22 21 21 21 21 21 21 20 19 19 18 17 17 16 16 15 14 14 13 12 11 11 10 10 10 10 9 9 8 8 8 8 8 7 7 7 7 7 8 8 8 8
23 22 22 22 22 22 22 21 20 20 19 19 18 18 17 17 16 15 14 14 13 12 11 11 10 10 10 10 10 9 9 8 8 8 8 8 8 8 8 8 8 9
24 23 23 22 22 22 22 22 22 21 20 20 20 19 18 18 17 16 15 15 14 14 13 12 12 11 11 11 11 10 10 10 9 9 9 9 9 9 9 9 9 9
24 24 23 23 23 22 23 23 23 22 21 21 21 20 20 19 18 18 17 16 16 15 14 14 13 13 12 12 12 11 11 11 10 10 10 10 10 10 9 9 9 9
24 24 24 24 24 23 23 23 23 23 22 22 22 21 21 20 19 19 18 18 17 17 16 15 15 14 14 13 13 12 12 12 11 11 11 11 11 11 10 10 10 10
24 24 24 25 24 24 24 23 23 23 23 23 22 22 22 22 21 20 19 19 19 18 17 17 16 16 15 15 14 14 13 13 12 12 12 12 12 12 11 11 11 11
24 24 24 25 25 25 25 24 24 24 24 24 23 23 23 23 22 22 21 20 20 20 19 18 18 17 17 16 16 15 15 14 14 13 13 13 13 13 13 12 12 12
25 24 24 25 25 26 26 26 25 24 24 24 24 24 23 23 23 23 22 21 21 21 20 20 19 19 18 18 17 17 17 16 15 15 15 14 14 14 14 14 14 13
26 26 25 25 26 26 26 27 26 26 25 25 25 25 24 24 24 24 23 23 22 22 21 21 20 20 20 20 19 18 18 17 17 16 16 16 16 16 16 15 15 15
27 27 26 26 26 26 27 27 27 27 27 26 26 26 25 25 25 25 25 24 23 23 22 22 22 22 22 22 21 21 20 19 19 18 18 18 18 18 17 17 17 16
28 27 27 27 27 27 27 28 28 28 28 27 27 27 27 26 26 26 26 25 25 24 24 23 23 23 23 23 23 23 22 21 20 20 19 19 19 19 19 19 18 18
27 27 28 28 28 28 28 29 29 29 28 28 28 28 28 28 28 27 27 27 26 26 25 24 24 24 24 24 24 24 24 23 23 22 21 20 20 20 20 20 20 20
26 27 28 28 29 29 30 30 30 30 29 29 29 30 29 29 29 29 29 28 28 28 27 26 25 25 25 25 26 26 26 25 25 24 23 23 22 21 21 21 20 21
24 25 27 28 29 30 31 31 31 31 31 30 30 30 30 30 30 30 30 30 29 29 29 28 28 27 26 26 26 27 27 26 26 26 26 25 25 24 24 23 22 22
24 25 26 27 29 30 31 31 32 32 32 31 31 31 31 31 31 31 31 30 30 30 30 30 29 29 28 28 28 28 28 27 27 27 27 27 27 26 26 26 25 24
25 26 27 27 29 30 32 32 33 33 33 33 33 32 32 32 31 31 31 31 31 31 31 30 30 30 30 30 30 30 29 28 28 28 28 28 28 27 27 27 27 27
25 26 28 29 29 31 32 33 34 34 34 34 34 34 33 33 32 31 31 31 31 31 31 31 31 31 31 31 31 31 30 30 30 29 28 28 28 28 28 28 28 29
26 27 28 29 31 32 32 32 33 33 32 33 34 34 34 33 33 33 32 32 32 32 32 32 32 32 32 32 32 32 31 31 31 30 29 29 29 28 29 29 29 29
26 27 28 29 31 33 33 32 31 32 32 31 31 32 32 32 32 32 32 33 33 32 32 32 32 32 32 32 33 33 33 32 32 31 30 30 29 29 29 29 29 30
Wind_Direction
205 204 203 202 201 199 198 198 198 198 196 195 194 193 190 188 187 186 185 183 182 181 179 179 181 183 182 181 182 184 185 186 189 193 192 191 192 194 195 193 194 192
207 206 205 205 204 203 201 200 201 201 201 200 199 198 196 195 194 193 192 190 189 188 187 186 187 189 191 190 190 191 193 193 195 198 199 199 200 202 203 203 203 203
209 207 207 206 206 206 204 203 203 204 204 204 203 202 201 201 201 199 198 197 196 194 193 193 192 194 197 197 196 199 201 200 202 205 206 206 207 210 211 211 211 210
210 210 209 208 207 207 207 206 206 206 206 207 206 206 204 204 204 204 203 202 203 202 200 200 200 199 201 202 202 204 207 206 207 210 211 212 213 215 216 216 217 216
212 211 211 210 208 208 209 209 209 209 208 209 209 209 208 207 206 206 207 207 207 208 207 206 206 204 205 206 207 209 211 212 214 214 215 217 219 220 220 220 220 220
213 213 213 212 211 210 211 211 211 211 211 211 211 211 211 211 209 208 209 210 211 212 212 212 212 211 210 210 211 214 215 215 218 219 219 221 222 223 224 223 223 223
214 214 214 214 214 213 213 214 214 213 213 213 213 213 213 213 214 213 213 213 214 215 216 217 217 217 216 215 215 217 218 218 221 223 223 224 224 225 226 226 226 225
216 216 215 216 215 215 216 216 216 216 215 215 216 215 215 215 216 217 217 217 217 217 218 219 221 221 220 220 220 221 221 223 225 227 227 226 227 228 228 228 228 227
217 217 217 217 216 217 217 218 218 218 217 217 218 218 218 218 218 218 219 220 220 220 220 221 223 223 223 224 224 225 225 226 228 230 230 230 230 230 230 229 229 229
218 218 218 218 217 218 218 219 220 220 219 219 220 220 220 220 220 220 220 222 223 224 224 224 225 226 226 227 228 228 229 228 230 232 233 232 232 232 232 230 230 230
218 219 219 219 219 219 219 220 221 222 222 222 222 222 222 222 223 223 222 224 226 227 226 227 228 229 229 230 230 231 232 232 232 234 234 234 234 234 233 232 232 232
219 220 220 221 221 221 221 221 222 223 223 223 224 224 224 224 224 225 225 226 228 229 229 229 230 231 232 232 232 232 234 234 234 235 236 236 236 236 235 235 235 235
221 221 222 222 223 224 224 223 224 224 225 225 225 226 226 226 226 226 227 228 230 231 231 231 232 233 234 235 234 233 234 236 236 236 237 237 237 237 237 237 237 237
223 223 224 224 224 225 226 226 225 226 226 226 227 227 227 228 228 228 228 229 230 232 233 233 234 235 236 237 237 235 235 236 238 238 239 239 238 238 238 239 239 239
223 225 226 226 226 226 227 227 227 228 228 228 228 228 229 229 230 231 230 230 230 232 234 234 235 237 238 238 238 238 237 238 239 240 241 241 241 241 240 241 241 242
224 226 227 228 227 227 228 229 229 229 230 229 229 229 230 230 231 233 233 233 232 233 235 236 237 239 239 239 240 240 240 240 240 241 242 243 243 244 243 243 243 244
226 227 228 228 229 229 229 231 232 231 231 232 231 231 231 231 232 233 235 236 235 235 235 237 239 240 239 239 240 241 242 243 243 243 244 245 245 245 246 246 246 246
227 228 229 229 230 230 231 232 234 233 233 233 233 233 233 233 234 234 236 237 239 239 238 239 241 241 240 240 241 241 242 243 245 245 245 246 246 246 247 248 248 248
228 229 230 230 231 231 231 233 235 235 235 234 234 234 235 235 236 236 237 238 240 241 242 242 243 242 241 242 243 242 242 243 245 246 247 247 247 247 247 248 249 249
230 231 232 232 232 233 233 233 234 236 237 236 235 235 236 236 237 238 239 241 242 242 243 244 245 244 242 243 244 244 244 244 245 246 248 248 248 248 248 248 249 250
235 235 235 235 234 235 235 235 235 236 237 237 237 236 237 237 239 240 241 242 243 244 244 245 246 245 244 243 244 244 245 246 246 247 248 249 249 249 249 249 249 249
240 239 239 238 237 237 237 237 236 236 237 238 238 238 238 238 240 241 242 242 243 244 245 246 246 245 244 244 244 245 246 248 248 248 249 250 251 251 251 251 250 250
242 241 241 240 240 240 239 238 237 237 236 237 238 238 239 239 240 241 242 242 243 243 244 246 247 246 245 245 245 245 247 249 249 249 250 251 252 252 252 252 252 251
244 242 241 241 241 241 240 239 238 237 236 236 236 237 238 239 240 241 242 242 243 244 244 245 246 246 245 245 246 245 247 249 249 250 251 252 252 252 253 253 253 252
248 247 245 243 242 242 243 242 242 241 241 239 238 238 238 239 240 241 242 243 244 244 245 245 246 246 245 245 245 245 246 248 249 250 251 252 253 253 253 253 253 253
250 250 249 248 246 245 245 245 246 247 247 246 244 243 241 241 242 243 245 245 245 245 246 246 246 247 246 245 245 245 246 247 248 249 251 252 253 253 254 254 253 254